Sisseton, SD

12:42 AM CST on November 18, 2017 (GMT -0600)
Sisseton

Weather History for K8D3 - February, 2014

Change the Weather History Date:

Wednesday, February 26, 2014

  Actual Average Record
Temperature  
Mean Temperature 10 °F 22 °F  
Max Temperature 24 °F 31 °F 61 °F (1958)
Min Temperature -5 °F 13 °F -21 °F (1934)
Degree Days  
Heating Degree Days 55 43  
Month to date heating degree days 1425 1229  
Since 1 July heating degree days 6693 6175  
Cooling Degree Days 0 0  
Month to date cooling degree days 0 0  
Year to date cooling degree days 0 0  
Moisture  
Dew Point -5 °F    
Average Humidity 64    
Maximum Humidity 83    
Minimum Humidity 44    
Precipitation  
Precipitation 0.00 in 0.02 in 0.76 in (2009)
Month to date precipitation 0.12 0.38  
Year to date precipitation 0.62 0.81  
Snow  
Snow 0.00 in - - ()
Month to date snowfall 1.7  
Since 1 July snowfall 21.9  
Snow Depth T in    
Sea Level Pressure  
Sea Level Pressure 30.08 in    
Wind  
Wind Speed 23 mph (NW)    
Max Wind Speed 38 mph    
Max Gust Speed 48 mph    
T = Trace of Precipitation, MM = Missing Value Source: NWS Daily Summary

Daily Weather History Graph

Daily Weather History Graph

Search for Another Location

Airport or City:

Trip Planner

Search our weather history database for the weather conditions in past years. The results will help you decide how hot, cold, wet, or windy it might be!

Date:

Astronomy

Feb. 26, 2014 Rise Set
Actual Time 7:11 AM CST 6:10 PM CST
Civil Twilight 6:41 AM CST 6:40 PM CST
Nautical Twilight 6:07 AM CST 7:15 PM CST
Astronomical Twilight 5:33 AM CST 7:49 PM CST
Moon 5:05 AM CST (2/26) 3:20 PM CST (2/26)
Length of Visible Light 11h 58m
Length of Day
10h 58m
Waning Crescent, 10% of the Moon is Illuminated
Feb 26
Waning Crescent
Mar 1
New
Mar 8
First Quarter
Mar 16
Full
Mar 23
Last Quarter

Hourly Weather History & Observations

Time (CST) Temp. Windchill Dew Point Humidity Pressure Visibility Wind Dir Wind Speed Gust Speed Precip Events Conditions
12:56 AM -2.9 °F -20.8 °F -11.9 °F 65% 30.47 in - NW 11.5 mph - N/A   Unknown
1:56 AM -2.9 °F -22.4 °F -11.9 °F 65% 30.42 in - WNW 13.8 mph - N/A   Unknown
2:56 AM -4.0 °F -25.2 °F -11.9 °F 69% 30.36 in - West 16.1 mph - N/A   Unknown
3:56 AM -2.0 °F -22.6 °F -11.9 °F 63% 30.30 in - West 16.1 mph - N/A   Unknown
4:56 AM -0.0 °F -21.8 °F -11.0 °F 60% 30.24 in - West 19.6 mph - N/A   Unknown
5:56 AM 1.9 °F -20.2 °F -8.0 °F 63% 30.17 in - West 21.9 mph 28.8 mph N/A   Unknown
6:56 AM 3.0 °F -16.1 °F -7.1 °F 63% 30.13 in - WNW 16.1 mph - N/A   Unknown
7:56 AM 3.0 °F -17.8 °F -6.0 °F 66% 30.09 in - West 19.6 mph 28.8 mph N/A   Unknown
8:56 AM 6.1 °F -16.5 °F -5.1 °F 60% 30.04 in - West 26.5 mph 32.2 mph N/A   Unknown
9:56 AM 10.0 °F -10.0 °F -2.9 °F 56% 29.95 in - WNW 23.0 mph 31.1 mph N/A   Unknown
10:56 AM 12.9 °F -7.3 °F -0.9 °F 54% 29.89 in - WNW 26.5 mph 39.1 mph N/A   Unknown
11:56 AM 16.0 °F -3.5 °F 1.9 °F 54% 29.85 in - WNW 27.6 mph 39.1 mph N/A   Unknown
12:56 PM 21.0 °F 2.7 °F 3.9 °F 48% 29.84 in - WNW 29.9 mph 40.3 mph N/A   Unknown
1:56 PM 23.0 °F 5.1 °F 3.9 °F 44% 29.82 in - NW 31.1 mph 47.2 mph N/A   Unknown
2:56 PM 21.9 °F 2.4 °F 5.0 °F 48% 29.83 in - NNW 36.8 mph 44.9 mph N/A   Unknown
3:56 PM 19.0 °F -1.3 °F 5.0 °F 54% 29.87 in - North 35.7 mph 46.0 mph N/A   Unknown
4:56 PM 15.1 °F -5.9 °F 1.9 °F 56% 29.93 in - North 32.2 mph 38.0 mph N/A   Unknown
5:56 PM 12.9 °F -8.6 °F -0.0 °F 56% 29.97 in - North 31.1 mph 38.0 mph N/A   Unknown
6:56 PM 10.0 °F -11.5 °F -2.0 °F 58% 30.04 in - North 27.6 mph 34.5 mph N/A   Unknown
7:56 PM 5.0 °F -17.1 °F -0.0 °F 80% 30.09 in - North 24.2 mph 28.8 mph N/A   Unknown
8:56 PM 3.0 °F -17.3 °F -8.0 °F 60% 30.13 in - NNE 18.4 mph 28.8 mph N/A   Unknown
9:56 PM -0.9 °F -21.2 °F -9.9 °F 66% 30.17 in - North 16.1 mph - N/A   Unknown
10:56 PM -2.9 °F -20.8 °F -11.0 °F 68% 30.20 in - NNE 11.5 mph - N/A   Unknown
11:56 PM -5.1 °F -24.3 °F -13.0 °F 69% 30.22 in - North 12.7 mph - N/A   Unknown